Location: Strawberry
(45.6646°N, 111.9596°W)
Time: 20:40:47
(UTC+00:00)

Envisat - Pass Details

Date: 17 August 2022
Orbit: 764 x 765 km, 98.2° (Epoch: 27 September)

Event Time Altitude Azimuth Distance (km) Brightness Sun altitude
Rises 11:32:28 0° 18° (NNE) 3,243 7.1 -10.0°
Reaches altitude 10° 11:34:52 10° 24° (NNE) 2,312 6.4 -9.6°
Maximum altitude 11:39:48 50° 99° (E) 976 4.0 -8.9°
Drops below altitude 10° 11:44:42 10° 175° (S) 2,294 5.2 -8.2°
Sets 11:47:04 0° 180° (S) 3,215 5.9 -7.8°
